GW5557 Weather Reports


Display with metric or nautical units.
time (UTC)temp
F
wind
direction
speed
MPH
gust
MPH
rain 1hr
in
rain 24hr
in
rain mn
in
humidity
%
barometer
mb
20260906031122 86 33 1.0 4.0 0.00 0.00 0.00 70 999.8
20260906030122 86 35 2.0 5.0 0.00 0.00 0.00 69 999.7
20260906025144 86 39 1.0 3.0 0.00 0.00 0.00 69 999.7
20260906024122 86 180 0.0 0.0 0.00 0.00 0.00 68 999.5
20260906023121 86 19 0.0 2.0 0.00 0.00 0.00 67 999.4
20260906022122 86 23 0.0 2.0 0.00 0.00 0.00 67 999.2
20260906021122 87 315 0.0 0.0 0.00 0.00 0.00 66 999.2
20260906020121 87 45 0.0 0.0 0.00 0.00 0.00 65 999.0
20260906015122 87 23 0.0 0.0 0.00 0.00 0.00 65 999.0
20260906014122 88 45 0.0 0.0 0.00 0.00 0.00 62 998.8
20260906013122 88 45 0.0 0.0 0.00 0.00 0.00 62 998.7
20260906012122 88 314 1.0 4.0 0.00 0.00 0.00 61 998.7
20260906011121 89 352 1.0 3.0 0.00 0.00 0.00 59 998.4
20260906010121 89 360 0.0 0.0 0.00 0.00 0.00 57 998.4
20260906005121 92 68 0.0 0.0 0.00 0.00 0.00 53 998.4
20260906004143 92 68 0.0 0.0 0.00 0.00 0.00 53 998.5
20260906003123 92 23 0.0 0.0 0.00 0.00 0.00 53 998.2
20260906002121 93 23 0.0 0.0 0.00 0.00 0.00 52 998.2
20260906001123 93 45 0.0 0.0 0.00 0.00 0.00 51 998.2
20260906000122 94 45 0.0 0.0 0.00 0.00 0.00 51 998.2
20260905235121 94 23 0.0 3.0 0.00 0.00 0.00 51 998.2
20260905234122 94 113 0.0 2.0 0.00 0.00 0.00 51 998.2
20260905233122 94 28 2.0 5.0 0.00 0.00 0.00 52 998.4
20260905232122 94 6 3.0 6.0 0.00 0.00 0.00 51 998.4
20260905231123 95 16 4.0 9.0 0.00 0.00 0.00 48 998.4
20260905230122 96 22 4.0 6.0 0.00 0.00 0.00 47 998.4
20260905225122 96 352 4.0 5.0 0.00 0.00 0.00 46 998.4
20260905224122 97 5 5.0 9.0 0.00 0.00 0.00 46 998.2
20260905223143 98 348 4.0 7.0 0.00 0.00 0.00 46 998.2
20260905222122 100 11 3.0 6.0 0.00 0.00 0.00 44 998.2
20260905221121 101 340 2.0 5.0 0.00 0.00 0.00 42 998.2
20260905220144 102 332 5.0 8.0 0.00 0.00 0.00 40 998.1
20260905215122 103 323 4.0 8.0 0.00 0.00 0.00 38 998.1
20260905214123 103 335 5.0 8.0 0.00 0.00 0.00 39 998.1
20260905213122 102 350 6.0 8.0 0.00 0.00 0.00 39 998.1
20260905212122 101 344 6.0 9.0 0.00 0.00 0.00 40 998.4
20260905211143 101 355 6.0 8.0 0.00 0.00 0.00 41 998.6
20260905210122 100 3 5.0 8.0 0.00 0.00 0.00 42 998.4
20260905205122 102 360 0.0 0.0 0.00 0.00 0.00 39 998.4
20260905204143 102 346 3.0 6.0 0.00 0.00 0.00 39 998.6
20260905203122 102 16 4.0 6.0 0.00 0.00 0.00 39 998.6
20260905202122 104 351 5.0 7.0 0.00 0.00 0.00 37 998.8
20260905201122 106 331 5.0 7.0 0.00 0.00 0.00 36 998.7
20260905200122 106 356 3.0 7.0 0.00 0.00 0.00 35 998.9
20260905195122 105 301 4.0 10.0 0.00 0.00 0.00 36 998.9
20260905194122 105 312 4.0 7.0 0.00 0.00 0.00 38 999.1
20260905193122 104 335 3.0 6.0 0.00 0.00 0.00 38 999.2
20260905192122 105 345 5.0 8.0 0.00 0.00 0.00 40 999.4
20260905191123 105 313 4.0 5.0 0.00 0.00 0.00 39 999.4
20260905190122 105 34 2.0 5.0 0.00 0.00 0.00 40 999.7
20260905185122 104 351 1.0 6.0 0.00 0.00 0.00 41 999.7
20260905184123 104 333 1.0 5.0 0.00 0.00 0.00 42 999.9
20260905183143 104 23 2.0 5.0 0.00 0.00 0.00 42 1000.0
20260905182122 103 2 2.0 5.0 0.00 0.00 0.00 43 1000.1
20260905181122 102 208 1.0 2.0 0.00 0.00 0.00 45 1000.2
20260905180122 100 45 0.0 0.0 0.00 0.00 0.00 46 1000.1
20260905175122 100 45 0.0 0.0 0.00 0.00 0.00 46 1000.1
20260905174122 100 113 0.0 3.0 0.00 0.00 0.00 46 1000.2
20260905173122 100 293 0.0 0.0 0.00 0.00 0.00 47 1000.4
20260905172122 100 293 0.0 0.0 0.00 0.00 0.00 47 1000.4
20260905171122 100 293 0.0 0.0 0.00 0.00 0.00 47 1000.6
20260905170122 100 143 1.0 4.0 0.00 0.00 0.00 47 1000.9
20260905165122 99 327 1.0 4.0 0.00 0.00 0.00 48 1000.9
20260905164121 98 314 2.0 5.0 0.00 0.00 0.00 49 1000.9
20260905163123 98 270 0.0 0.0 0.00 0.00 0.00 50 1001.0
20260905162121 98 270 0.0 0.0 0.00 0.00 0.00 50 1001.1
20260905161122 98 285 2.0 6.0 0.00 0.00 0.00 50 1001.0
20260905160121 96 288 3.0 6.0 0.00 0.00 0.00 52 1001.2
20260905155121 96 9 2.0 6.0 0.00 0.00 0.00 52 1001.2
20260905154123 93 225 0.0 0.0 0.00 0.00 0.00 56 1001.2
20260905153122 93 225 0.0 0.0 0.00 0.00 0.00 56 1001.2
20260905152122 93 225 0.0 3.0 0.00 0.00 0.00 56 1001.2
20260905151122 93 282 3.0 5.0 0.00 0.00 0.00 56 1001.2
20260905150121 94 303 3.0 5.0 0.00 0.00 0.00 55 1001.1
20260905145121 92 230 3.0 5.0 0.00 0.00 0.00 57 1001.1
20260905144121 91 248 3.0 6.0 0.00 0.00 0.00 58 1001.2
20260905143121 91 294 3.0 5.0 0.00 0.00 0.00 58 1001.1
20260905142121 91 249 2.0 5.0 0.00 0.00 0.00 60 1001.1
20260905141122 89 269 2.0 4.0 0.00 0.00 0.00 62 1001.1
20260905140124 89 256 2.0 5.0 0.00 0.00 0.00 62 1001.1
20260905135123 90 291 2.0 4.0 0.00 0.00 0.00 61 1001.1
20260905134121 88 247 0.0 4.0 0.00 0.00 0.00 63 1001.0
20260905133121 88 203 0.0 0.0 0.00 0.00 0.00 62 1000.9
20260905132121 87 248 0.0 0.0 0.00 0.00 0.00 65 1000.9
20260905131121 88 315 0.0 0.0 0.00 0.00 0.00 65 1000.8
20260905130142 86 315 0.0 0.0 0.00 0.00 0.00 68 1000.7
20260905125121 86 113 0.0 0.0 0.00 0.00 0.00 70 1000.7
20260905124144 83 23 0.0 0.0 0.00 0.00 0.00 74 1000.7
20260905123124 80 113 0.0 0.0 0.00 0.00 0.00 81 1000.5
20260905122121 80 113 0.0 0.0 0.00 0.00 0.00 81 1000.5
20260905121121 79 23 0.0 0.0 0.00 0.00 0.00 80 1000.4
20260905120121 79 135 0.0 0.0 0.00 0.00 0.00 80 1000.2
20260905115121 79 23 0.0 0.0 0.00 0.00 0.00 79 1000.2
20260905114121 79 225 0.0 0.0 0.00 0.00 0.00 80 1000.0
20260905113142 79 180 0.0 0.0 0.00 0.00 0.00 82 1000.0
20260905112142 78 135 0.0 0.0 0.00 0.00 0.00 82 1000.0
20260905111124 79 180 0.0 0.0 0.00 0.00 0.00 81 999.9
20260905110124 79 45 0.0 0.0 0.00 0.00 0.00 81 999.7
20260905105124 79 158 0.0 0.0 0.00 0.00 0.00 80 999.7
20260905104122 79 158 0.0 0.0 0.00 0.00 0.00 80 999.8
20260905103121 79 248 0.0 0.0 0.00 0.00 0.00 80 999.9
20260905102124 79 180 0.0 0.0 0.00 0.00 0.00 81 1000.0
20260905101121 79 158 0.0 0.0 0.00 0.00 0.00 81 999.9
20260905100122 79 158 0.0 0.0 0.00 0.00 0.00 80 999.9
20260905095143 79 158 0.0 0.0 0.00 0.00 0.00 80 999.9
20260905094124 79 23 0.0 0.0 0.00 0.00 0.00 80 999.9
20260905093124 80 158 0.0 0.0 0.00 0.00 0.00 79 999.9
20260905092121 80 158 0.0 0.0 0.00 0.00 0.00 79 1000.0
20260905091121 80 113 0.0 0.0 0.00 0.00 0.00 79 1000.0
20260905090121 80 45 0.0 0.0 0.00 0.00 0.00 79 1000.0
20260905085121 80 158 0.0 0.0 0.00 0.00 0.00 77 1000.0
20260905084144 80 90 0.0 0.0 0.00 0.00 0.00 77 1000.1
20260905083123 81 203 0.0 0.0 0.00 0.00 0.00 76 1000.0
20260905082124 81 180 0.0 0.0 0.00 0.00 0.00 76 1000.0
20260905081121 81 203 0.0 0.0 0.00 0.00 0.00 76 1000.2
20260905080121 81 23 0.0 0.0 0.00 0.00 0.00 76 1000.2
20260905075121 82 158 0.0 0.0 0.00 0.00 0.00 75 1000.2
20260905074121 82 158 0.0 0.0 0.00 0.00 0.00 75 1000.4
20260905073121 82 90 0.0 0.0 0.00 0.00 0.00 74 1000.5
20260905072124 82 180 0.0 0.0 0.00 0.00 0.00 73 1000.4
20260905071145 82 360 0.0 0.0 0.00 0.00 0.00 73 1000.4
20260905070124 82 135 0.0 0.0 0.00 0.00 0.00 73 1000.4
20260905065121 82 180 0.0 0.0 0.00 0.00 0.00 73 1000.4
20260905064121 83 135 0.0 0.0 0.00 0.00 0.00 72 1000.4
20260905063121 83 45 0.0 0.0 0.00 0.00 0.00 72 1000.2
20260905062121 84 158 0.0 0.0 0.00 0.00 0.00 71 1000.5
20260905061142 84 158 0.0 0.0 0.00 0.00 0.00 70 1000.6
20260905060124 84 135 0.0 0.0 0.00 0.00 0.00 69 1000.5
20260905055124 85 45 0.0 0.0 0.00 0.00 0.00 68 1000.5
20260905054123 86 113 0.0 0.0 0.00 0.00 0.00 66 1000.7
20260905053142 86 203 0.0 0.0 0.00 0.00 0.00 65 1000.5
20260905052121 87 158 0.0 0.0 0.00 0.00 0.00 65 1000.4
20260905051121 87 203 0.0 0.0 0.00 0.00 0.00 64 1000.4
20260905050121 87 225 0.0 2.0 0.00 0.00 0.00 64 1000.4
20260905045121 87 198 0.0 4.0 0.00 0.00 0.00 63 1000.4
20260905044121 88 155 1.0 3.0 0.00 0.00 0.00 62 1000.2
20260905043145 88 153 1.0 4.0 0.00 0.00 0.00 62 1000.2
20260905042123 88 167 2.0 5.0 0.00 0.00 0.00 62 1000.4
20260905041121 88 189 0.0 4.0 0.00 0.00 0.00 62 1000.2
20260905040142 89 159 1.0 4.0 0.00 0.00 0.00 61 1000.2
20260905035121 89 156 2.0 5.0 0.00 0.00 0.00 60 1000.2
20260905034121 87 151 0.0 4.0 0.00 0.00 0.00 63 1000.2
20260905033121 86 315 0.0 1.0 0.00 0.00 0.00 69 1000.2
20260905032123 86 23 0.0 0.0 0.00 0.00 0.00 70 1000.2